星链-1569 (STARLINK-1569 )

导读 | 豆包AI

STARLINK-1569是美国太空探索技术公司(SpaceX)星链(Starlink)卫星互联网项目中的一颗卫星,于2020年8月7日发射。星链项目旨在构建全球卫星互联网星座,为全球提供宽带互联网接入服务,该卫星入轨后,参与到星链星座的组网运行中,推动全球覆盖网络的建设进程。

基本信息
目录编号:
46039
目录名称:
STARLINK-1569
国际标识:
2020-055N
轨道中心:
EARTH
卫星名称:
星链-1569
卫星全名:
星链-1569 (STARLINK-1569 )
卫星状态:
在轨 (已飞行2066 天)
发射日期:
2020-08-07 UTC
国别 :
美国 (US)
星等 :
--
轨道信息
数据来源 国际轨道数据 AOE轨道数据
星历时间 2026-04-04T02:34:17+0800
7小时前
查看轨道信息
2026-03-31T21:00:00+0800
3天前
查看轨道信息
半长轴 6853.297km 6853.229km
偏心率 0.0000809 0.0000328
轨道倾角 53.161° 53.159°
近地点辐角 52.700° 131.365°
升交点赤经 10.190° 25.204°
平近点角 307.407° 54.069°
近地点 474.605km 474.867km
远地点 475.715km 475.317km
周期 94.104分钟 94.103分钟
每日圈数 15.302187 15.302414
详细信息
固有亮度:
5
最大亮度:
2.5
卫星平台:
Starlink V1.0
覆盖范围:
全球
运营商:
太空探索技术公司
运营商所在国:
美国
制造商(研发单位):
太空探索技术公司
制造商所在国:
美国
使用方式:
暂无
卫星简介
星链(Starlink)计划是由太空探索技术公司(SpaceX)提出的一个巨型低轨卫星互联网星座项目,计划在2019年至2024年间在太空搭建由约1.2万颗卫星组成的“星链”网络,其中1584颗将部署在地球上空550千米处的近地轨道,并从2020年开始工作。该卫星仍在工作。
2D轨道图
3D轨道图
轨道高度分析图
轨道倾角分析图
轨道综合分析图
查看轨道综合分析图